sat.trackr.live / text

‹ back to catalog

SITRO-AIS 17

NORAD 61789 · 2024-199BG

PAYLOAD ACTIVE UNKNOWN

§ Identity

Operator
Country
CIS
Launch date
2024-11-04
Launch site
VOSTO
Launch vehicle
Mass (kg)
RCS (m²)

External: N2YO · Heavens-Above · Gunter

§ Orbital elements

Epoch: 2026-05-25T04:20:01.828608Z

Period
96.14 min
Inclination
97.3262°
Eccentricity
0.0007403
Mean motion
14.97820028 rev/d
Perigee alt
568.5 km
Apogee alt
578.8 km
Semi-major
6,951.8 km
B*
2.6972e-4
RAAN
346.2284°
Arg perigee
136.9764°
Mean anomaly
223.2039°
Rev number
12,859

§ Raw data

SITRO-AIS 171 61789U 24199BG  26145.18057672  .00003118  00000+0  26972-3 0  99912 61789  97.3262 346.2284 0007403 136.9764 223.2039 14.97820028128598

JSON: /api/v1/satellites/61789 · /tle

For live sub-satellite position, see the globe view (requires WebGL).

§ Visibility from observer

Set your observer location to see the next 7 days of passes ≥ 10°. The values pass through the URL so the page stays shareable.

No JS? Fill the form by hand. The geolocation button needs JavaScript.

§ Radio — SatNOGS DB

ModeDescriptionDownlinkUplink
GMSK USP Mode U - GMSK2k4 - USP 401.095 MHz

1 transmitter · refreshed weekly from db.satnogs.org